Temperature
15 15 15 15 15 15 15 15 15 14 14 14 14 14 14 14 14 14 14 14 14 14 13 13 13 13 13 12 12 12 12 12 12 12 11 11 11 11 11 11 11 11 11
15 15 15 15 15 15 15 15 14 14 14 14 14 14 14 14 14 14 13 14 14 13 13 13 13 13 12 12 12 12 12 11 11 11 11 11 11 11 11 11 11 10 10
15 15 15 15 15 15 15 14 14 14 14 14 14 14 13 14 14 14 14 13 13 13 13 13 13 12 12 12 12 12 11 11 11 11 11 11 11 10 10 10 10 10 10
15 15 15 15 15 15 14 14 14 14 14 14 13 13 13 14 14 13 13 13 13 13 13 13 13 12 12 12 12 11 11 11 11 11 11 10 10 10 10 10 10 10 10
15 15 14 14 14 14 14 14 14 14 13 13 13 13 13 13 14 14 13 13 13 13 13 13 12 12 12 12 12 11 11 11 11 11 10 10 10 10 10 10 10 10 10
15 14 14 14 14 14 14 14 14 13 13 13 13 13 13 13 14 14 14 13 13 13 13 12 12 12 12 12 11 11 11 11 10 10 10 10 10 10 10 10 10 9 9
14 14 14 14 14 14 14 13 13 13 13 13 13 13 13 13 14 14 14 13 13 13 13 12 12 12 11 11 11 11 11 10 10 10 10 10 10 9 9 9 9 9 9
14 14 14 14 14 14 13 13 13 13 13 13 12 12 12 13 13 13 13 13 13 13 12 12 12 11 11 11 11 10 10 10 10 10 9 9 9 9 9 9 9 9 9
14 14 14 14 14 14 13 13 13 13 13 13 12 12 12 13 12 12 13 13 12 12 12 11 11 11 11 10 10 10 10 10 9 9 9 9 9 9 9 9 9 9 9
14 14 13 13 13 13 13 13 13 13 12 12 12 12 12 12 12 12 12 12 12 11 11 11 11 10 10 10 10 10 9 9 9 9 9 9 8 8 8 8 8 8 8
13 13 13 13 13 13 13 13 13 13 12 12 12 12 12 12 11 11 11 11 11 11 11 11 10 10 10 9 9 9 9 9 8 8 8 8 8 8 8 8 8 8 8
13 13 13 13 13 13 13 13 13 12 12 12 12 12 12 12 11 11 10 10 10 10 10 10 10 10 9 9 9 8 8 8 8 8 8 8 7 7 7 7 7 7 7
13 13 13 13 13 13 13 13 12 12 12 12 12 12 12 11 11 11 10 10 9 9 9 10 9 9 9 8 8 8 7 7 7 7 7 7 7 7 7 7 7 7 7
13 13 13 13 13 13 12 12 12 12 12 12 12 12 11 11 11 11 10 9 9 8 8 9 9 8 8 8 7 7 7 7 7 6 6 7 6 6 6 6 6 6 6
13 12 12 12 12 12 12 12 12 12 12 12 11 11 11 11 11 10 10 9 8 8 8 8 7 8 7 7 7 6 6 6 6 6 6 6 6 6 6 6 6 6 6
12 12 12 12 12 12 12 12 12 12 11 11 11 11 11 10 10 10 9 9 8 7 7 7 7 7 7 6 6 6 6 5 5 5 5 5 5 5 5 5 5 5 5
12 12 12 12 12 12 11 11 11 11 11 11 11 10 10 10 10 9 9 8 8 7 7 6 6 6 6 6 5 5 5 5 5 4 4 4 4 4 4 4 4 4 4
12 12 11 11 11 11 11 11 11 11 11 10 10 10 10 9 9 9 8 8 7 7 6 5 5 5 5 5 5 4 4 4 4 4 4 4 4 4 4 4 4 4 4
11 11 11 11 11 11 10 10 10 10 10 10 9 9 9 9 8 8 8 7 7 6 6 5 5 5 4 4 4 4 4 4 4 3 3 3 3 3 3 3 3 3 3
11 10 10 10 10 10 10 10 10 9 9 9 9 9 8 8 8 7 7 7 6 6 5 5 4 4 4 4 4 3 3 3 3 3 3 2 2 2 2 2 2 2 2
10 10 10 10 9 9 9 9 9 9 9 9 8 8 8 7 7 6 6 6 5 5 4 4 4 4 4 3 3 3 3 3 3 2 2 2 2 2 2 2 2 2 2
9 9 9 9 9 9 9 8 8 8 8 8 7 7 7 6 6 6 5 5 4 4 4 3 3 3 3 3 3 3 2 2 2 2 2 2 1 1 1 1 1 1 1
8 8 8 8 8 8 8 8 7 7 7 7 6 6 6 5 5 5 4 4 3 3 3 3 3 3 3 2 2 2 2 2 1 2 1 1 1 1 1 1 1 1 1
7 7 7 7 7 7 7 7 6 6 6 6 6 5 5 5 4 4 3 3 3 3 3 2 2 2 2 2 2 2 2 1 1 1 1 1 1 1 1 1 0 0 0
7 7 6 6 6 6 6 6 6 6 5 5 5 4 4 4 3 3 3 2 2 2 2 2 2 2 2 1 1 1 1 1 0 1 0 0 0 0 0 0 0 -0 -0
6 6 6 5 5 5 5 5 5 5 5 4 4 4 3 3 3 2 2 2 1 1 1 1 1 1 1 1 1 0 0 0 -0 -0 0 -0 0 -0 -0 -0 -0 -1 -1
Wind_Speed
10 10 9 10 10 9 9 8 7 7 6 6 4 3 3 2 2 2 2 3 3 3 3 3 3 3 3 3 3 3 3 3 3 3 3 3 3 2 2 2 2 2 2
10 9 9 9 9 9 8 8 7 6 5 4 4 4 3 3 3 3 3 3 4 4 4 5 5 5 4 4 4 4 4 4 4 3 3 4 4 5 5 4 4 4 3
12 10 8 8 8 9 9 7 7 6 5 4 4 4 3 4 4 4 4 4 3 4 5 5 5 5 4 4 4 4 4 4 5 5 5 5 5 6 7 7 7 7 6
13 11 8 8 9 9 8 7 6 6 5 5 4 3 3 3 4 4 4 3 3 3 3 3 3 3 3 3 3 3 4 4 5 5 6 7 7 8 7 8 7 8 8
14 12 9 8 10 8 7 6 6 6 5 5 3 3 3 3 3 4 4 4 3 3 3 2 2 2 3 3 3 4 3 3 4 5 6 6 7 8 8 9 9 8 9
15 13 9 10 10 7 7 7 7 6 5 4 3 3 3 3 3 3 4 3 2 2 3 2 2 2 2 2 3 3 4 4 3 4 5 5 6 7 7 8 9 9 9
14 12 9 9 9 8 8 8 7 7 6 5 4 4 4 3 3 2 2 2 2 2 2 1 1 2 1 2 2 3 4 4 4 4 4 5 6 6 7 7 7 8 9
14 12 11 9 9 8 9 9 8 6 5 5 4 3 3 4 3 2 1 1 2 2 1 1 1 1 1 1 1 2 3 4 4 4 4 4 5 6 6 7 7 7 8
14 13 12 10 10 9 9 10 9 9 7 6 6 4 4 3 2 3 3 2 2 2 1 1 1 1 2 2 2 2 3 4 4 4 4 4 5 5 5 5 6 7 7
13 14 13 12 10 9 9 9 9 9 8 7 5 5 5 3 3 2 3 3 2 2 2 1 1 1 1 1 2 3 4 3 3 4 4 4 4 5 5 6 7 7 6
12 12 13 12 10 9 10 9 9 9 8 8 6 4 5 4 6 5 4 3 3 3 2 2 2 1 1 1 1 3 3 4 4 4 5 5 5 6 6 6 5 5 5
9 11 11 11 10 9 10 9 9 10 8 7 6 5 5 4 5 5 6 5 4 2 2 2 2 1 1 1 1 2 3 3 3 4 4 4 5 6 6 8 7 6 4
9 12 11 10 9 9 8 8 8 8 7 7 7 6 5 5 4 4 5 5 4 3 2 2 2 2 1 0 0 2 2 3 3 3 3 5 5 6 6 7 7 6 5
10 11 11 10 9 9 9 8 7 7 6 7 7 6 5 5 4 4 4 4 4 4 4 4 2 3 2 1 1 0 1 3 3 3 5 6 6 6 6 6 6 6 6
7 10 10 10 10 10 9 8 7 7 7 7 6 6 5 4 3 3 4 4 4 4 4 3 2 2 2 1 1 1 1 3 4 5 5 5 5 6 6 6 6 7 7
8 9 10 10 10 10 9 8 7 7 7 6 5 6 6 4 4 3 4 4 5 5 4 1 1 1 2 2 2 1 2 4 4 4 4 4 4 5 5 5 5 6 7
9 10 11 11 10 10 9 8 8 8 8 7 6 6 6 5 4 4 3 4 4 5 5 2 1 1 2 2 2 1 2 2 3 4 3 4 4 4 4 4 4 5 6
10 10 11 10 9 9 8 9 8 8 8 8 7 6 5 4 4 3 3 4 4 4 4 4 2 2 2 2 2 2 1 2 2 3 4 4 4 4 5 5 5 6 7
9 9 10 10 10 9 9 8 8 8 8 7 7 7 6 5 5 3 3 3 3 3 3 3 2 1 1 2 2 1 1 1 2 3 3 3 4 4 5 6 6 7 7
9 9 9 10 10 9 9 8 8 8 7 6 5 5 5 5 4 4 3 3 3 3 3 3 2 2 2 2 2 2 2 2 1 1 3 3 4 4 5 4 5 5 5
8 9 9 9 9 8 8 9 9 8 8 7 6 5 4 4 3 3 3 3 3 3 3 3 3 2 3 3 4 3 3 2 1 1 1 1 2 2 3 4 4 3 3
7 8 9 9 9 7 10 11 9 8 8 8 6 5 4 4 4 4 3 2 1 3 4 3 3 4 4 4 3 3 3 3 3 3 3 2 2 2 1 2 3 3 3
7 7 8 8 8 9 12 12 10 8 7 7 6 6 4 4 5 4 4 4 2 1 1 3 4 4 3 4 4 5 4 3 2 3 3 3 3 3 2 1 2 3 4
7 7 7 8 8 9 11 12 11 7 6 6 6 6 6 6 5 5 4 3 3 2 1 1 2 2 2 2 4 4 3 3 2 1 2 3 3 3 3 3 3 4 4
6 6 7 8 8 8 11 11 10 6 6 6 5 5 6 6 7 7 5 4 3 2 3 3 3 2 1 2 4 4 4 3 2 3 3 2 2 2 3 3 3 3 4
5 5 6 6 7 8 11 11 10 6 6 5 5 5 6 6 8 8 6 5 4 3 3 2 3 3 3 3 3 2 3 3 2 3 4 3 3 2 2 3 4 4 5
Wind_Direction
173 170 171 172 176 174 174 177 178 173 177 177 179 182 188 193 190 203 183 189 242 259 258 249 249 244 234 229 216 211 214 218 230 236 242 248 258 270 285 298 308 334 358
176 175 175 178 179 181 181 183 182 182 187 192 195 202 215 222 229 238 248 218 221 245 261 259 253 245 243 236 227 224 222 223 229 234 245 254 260 263 266 267 266 269 275
180 180 180 182 182 182 183 185 184 193 194 200 212 220 231 239 240 243 246 254 240 228 246 257 258 254 250 247 240 234 229 231 237 242 249 256 261 263 262 263 263 258 255
186 185 187 188 184 183 187 188 192 196 200 211 219 221 232 239 249 252 250 250 255 251 231 235 261 265 262 257 252 247 239 236 241 246 255 260 262 262 262 262 262 258 251
191 191 193 191 186 188 193 193 200 205 208 214 221 234 244 247 252 252 254 252 249 251 259 217 237 269 276 265 269 269 269 265 251 250 259 267 271 270 266 263 260 260 252
194 194 194 194 189 192 196 198 201 208 215 216 217 236 249 251 251 251 253 246 236 236 244 244 231 216 238 268 286 289 290 289 275 270 270 275 278 283 280 275 268 260 252
194 194 192 193 193 198 201 202 203 207 211 210 223 237 232 227 230 236 240 236 215 216 220 226 243 252 234 222 287 292 291 290 283 284 282 277 280 287 289 288 284 275 260
195 196 197 195 194 198 202 203 203 208 207 206 221 237 237 213 195 195 201 211 214 193 191 226 252 277 290 285 3 329 308 298 286 282 288 292 286 285 290 291 291 289 282
195 194 197 198 197 199 203 204 206 212 213 207 221 231 239 238 206 195 193 198 201 203 200 195 276 300 307 309 317 344 332 312 297 294 298 300 303 301 301 310 312 304 299
198 197 198 200 200 202 205 206 208 213 217 214 211 230 251 268 250 235 196 192 197 221 217 201 232 257 293 304 336 351 352 330 323 316 321 323 322 325 330 319 312 307 301
200 200 200 200 201 202 204 205 207 210 215 218 211 203 218 233 243 253 252 220 214 215 224 242 246 257 297 310 333 3 360 343 334 322 324 336 346 347 349 347 333 321 315
199 199 199 200 202 202 201 201 207 210 212 215 214 208 207 212 216 226 245 252 254 232 225 232 233 234 248 293 16 22 4 347 334 327 331 11 15 13 7 2 356 347 350
200 198 197 197 197 197 195 193 197 199 202 205 209 211 215 221 216 220 238 251 254 247 229 221 208 206 185 243 45 35 28 15 3 0 26 46 41 28 15 7 6 15 22
201 194 193 189 188 189 187 185 186 188 193 201 205 204 208 210 207 213 225 234 249 242 231 224 188 190 167 175 103 61 64 63 53 58 62 60 48 34 26 24 26 35 40
195 190 186 184 182 183 183 178 183 185 185 191 194 196 199 196 195 205 216 224 237 248 243 216 195 167 168 169 152 159 104 92 85 82 79 70 56 44 36 40 39 44 45
184 183 184 182 180 178 175 174 178 179 182 183 184 189 193 188 185 194 206 220 232 244 248 218 206 188 174 169 150 151 129 123 109 102 93 80 67 57 47 45 44 49 48
178 178 176 176 175 172 171 174 175 174 177 176 178 185 188 183 184 189 195 211 222 230 243 244 218 199 194 189 164 145 134 127 120 114 110 94 77 65 56 59 65 62 61
176 174 170 167 166 167 168 173 175 177 176 176 176 178 183 178 189 192 197 207 218 225 239 244 226 202 211 191 168 147 111 100 107 115 115 105 88 81 73 68 73 76 75
167 167 168 168 167 166 168 174 175 173 172 173 175 179 178 181 188 188 200 210 215 222 234 238 223 195 183 169 158 139 134 114 98 112 121 113 105 98 88 79 76 77 76
165 166 168 166 163 161 163 165 164 164 163 161 165 170 172 179 183 182 197 210 214 219 221 224 221 207 190 174 181 186 196 190 166 108 118 108 111 107 102 97 88 83 83
161 159 158 154 154 157 164 164 162 161 160 156 156 158 157 153 159 179 194 202 205 217 217 218 219 205 199 192 204 192 196 178 196 202 184 157 145 128 116 116 112 104 103
149 150 154 154 154 156 155 158 158 158 157 158 157 153 148 147 146 149 148 155 199 219 218 218 223 225 224 216 191 185 177 183 209 190 196 189 195 190 168 154 132 137 137
149 151 153 153 153 152 153 155 157 154 157 160 161 162 157 155 158 152 139 131 116 65 278 245 238 238 233 213 192 194 196 203 202 154 181 191 191 203 187 191 184 179 169
154 153 154 153 150 153 155 155 151 151 153 157 165 170 168 167 169 163 156 145 130 104 58 247 254 263 261 228 204 199 183 152 112 150 200 197 187 198 185 199 192 196 189
151 152 154 155 156 157 160 159 155 152 155 159 164 173 176 175 165 168 166 163 161 142 89 74 60 60 90 156 163 153 158 172 185 183 195 202 174 181 194 198 187 197 199
150 149 153 161 164 164 165 168 167 161 162 164 168 176 187 186 175 182 185 181 185 174 156 135 117 105 108 121 146 186 184 186 179 184 179 187 169 169 195 193 201 207 207
Height
1550 1553 1555 1558 1560 1562 1564 1565 1567 1568 1570 1571 1571 1572 1572 1572 1572 1572 1572 1571 1571 1570 1570 1569 1569 1568 1567 1567 1566 1565 1564 1563 1562 1561 1561 1560 1559 1558 1557 1556 1554 1553 1552
1549 1551 1554 1556 1559 1561 1563 1564 1566 1567 1569 1570 1571 1571 1571 1571 1571 1571 1571 1571 1570 1570 1569 1568 1568 1567 1566 1566 1565 1564 1564 1563 1562 1561 1560 1559 1558 1557 1556 1555 1554 1553 1552
1547 1550 1553 1555 1557 1559 1561 1563 1565 1566 1568 1568 1569 1570 1570 1570 1570 1570 1570 1569 1569 1568 1567 1567 1566 1566 1565 1565 1564 1563 1562 1562 1561 1560 1559 1558 1557 1556 1555 1554 1553 1552 1551
1545 1548 1551 1553 1556 1558 1560 1561 1563 1565 1566 1567 1568 1568 1568 1568 1568 1568 1568 1567 1567 1566 1566 1565 1565 1564 1564 1563 1562 1562 1561 1560 1559 1558 1557 1556 1555 1554 1553 1552 1551 1550 1549
1543 1546 1549 1551 1553 1556 1558 1559 1561 1563 1564 1565 1565 1566 1566 1566 1566 1566 1565 1565 1564 1564 1564 1563 1563 1562 1562 1561 1561 1560 1559 1558 1557 1556 1555 1554 1553 1552 1550 1549 1548 1548 1547
1540 1543 1546 1549 1551 1553 1555 1557 1559 1560 1562 1563 1563 1563 1564 1563 1563 1563 1563 1562 1562 1562 1561 1561 1560 1560 1559 1559 1558 1558 1557 1556 1555 1554 1553 1552 1550 1549 1548 1547 1546 1545 1544
1537 1540 1543 1545 1548 1550 1553 1555 1556 1558 1559 1560 1561 1561 1561 1560 1560 1560 1560 1560 1559 1559 1559 1558 1558 1557 1557 1556 1556 1555 1554 1553 1552 1551 1550 1549 1548 1547 1546 1544 1543 1542 1541
1534 1537 1540 1542 1544 1547 1549 1552 1553 1555 1556 1557 1558 1559 1559 1559 1557 1557 1557 1557 1557 1556 1556 1555 1555 1554 1554 1554 1553 1552 1551 1551 1550 1549 1548 1546 1545 1544 1543 1541 1540 1538 1538
1530 1533 1536 1539 1541 1543 1546 1548 1550 1552 1553 1554 1555 1556 1557 1556 1556 1554 1554 1554 1553 1553 1553 1552 1552 1551 1551 1550 1550 1549 1549 1548 1547 1546 1545 1544 1542 1541 1539 1538 1537 1535 1534
1526 1529 1532 1534 1537 1539 1541 1544 1546 1547 1549 1550 1551 1552 1553 1553 1554 1553 1551 1551 1550 1550 1550 1549 1549 1548 1548 1547 1546 1546 1545 1545 1544 1543 1542 1541 1540 1538 1536 1535 1534 1532 1531
1521 1524 1527 1529 1532 1535 1537 1539 1541 1543 1544 1545 1546 1547 1548 1548 1549 1550 1549 1548 1547 1546 1546 1546 1545 1544 1544 1543 1543 1542 1542 1541 1541 1540 1539 1538 1537 1535 1534 1532 1531 1529 1528
1515 1518 1521 1524 1527 1529 1532 1534 1536 1538 1539 1541 1542 1543 1543 1544 1544 1545 1545 1545 1544 1543 1542 1541 1541 1540 1540 1539 1539 1539 1539 1538 1538 1537 1536 1535 1534 1532 1531 1529 1528 1526 1525
1509 1512 1516 1519 1521 1524 1526 1529 1531 1532 1534 1536 1537 1538 1539 1540 1540 1540 1541 1541 1540 1539 1538 1537 1537 1536 1536 1535 1535 1535 1535 1535 1534 1533 1533 1531 1530 1529 1528 1526 1525 1524 1523
1504 1507 1510 1513 1516 1518 1521 1524 1525 1527 1529 1531 1533 1533 1534 1535 1535 1536 1536 1537 1536 1536 1534 1534 1533 1532 1532 1532 1532 1532 1531 1531 1531 1530 1529 1528 1527 1526 1525 1524 1523 1522 1521
1500 1503 1505 1508 1511 1514 1516 1518 1520 1522 1525 1526 1528 1529 1530 1530 1530 1531 1531 1532 1533 1533 1532 1530 1529 1528 1528 1528 1528 1528 1527 1527 1527 1526 1526 1525 1524 1523 1522 1521 1521 1520 1519
1494 1497 1500 1503 1506 1508 1511 1513 1516 1517 1520 1521 1522 1523 1524 1525 1525 1526 1526 1527 1528 1528 1528 1526 1526 1525 1524 1524 1524 1524 1524 1523 1523 1523 1522 1521 1521 1520 1519 1519 1518 1518 1518
1489 1492 1495 1498 1500 1503 1506 1508 1510 1512 1514 1516 1517 1519 1519 1520 1520 1521 1521 1522 1523 1523 1522 1522 1521 1521 1521 1521 1520 1520 1520 1520 1520 1519 1519 1519 1518 1517 1517 1516 1516 1516 1516
1484 1486 1490 1492 1495 1498 1501 1503 1506 1508 1510 1511 1513 1514 1515 1515 1516 1516 1517 1517 1518 1518 1518 1517 1517 1517 1517 1517 1517 1517 1517 1517 1516 1516 1516 1516 1516 1515 1515 1514 1514 1514 1514
1479 1482 1485 1487 1490 1494 1496 1499 1501 1503 1505 1507 1508 1509 1510 1511 1511 1512 1512 1513 1513 1513 1513 1513 1513 1513 1512 1513 1513 1513 1513 1513 1513 1513 1513 1513 1513 1513 1513 1513 1512 1512 1512
1475 1478 1480 1483 1486 1489 1492 1495 1497 1499 1501 1502 1504 1504 1505 1506 1507 1507 1508 1508 1508 1508 1508 1508 1508 1508 1508 1508 1509 1509 1509 1510 1510 1510 1510 1510 1511 1510 1511 1511 1511 1511 1511
1471 1474 1476 1479 1482 1485 1488 1490 1493 1494 1496 1498 1499 1500 1500 1501 1502 1503 1503 1503 1503 1504 1504 1504 1504 1504 1504 1504 1505 1505 1506 1506 1506 1507 1507 1507 1508 1508 1508 1508 1508 1508 1509
1468 1470 1473 1475 1478 1481 1483 1486 1488 1490 1491 1493 1494 1495 1496 1497 1497 1498 1499 1499 1499 1500 1499 1500 1500 1500 1500 1500 1501 1501 1502 1502 1503 1504 1504 1504 1505 1505 1505 1505 1506 1506 1506
1464 1467 1469 1472 1474 1477 1479 1481 1483 1485 1487 1488 1490 1491 1492 1493 1493 1494 1494 1495 1495 1496 1496 1497 1496 1496 1496 1496 1497 1497 1498 1498 1499 1500 1500 1501 1501 1502 1502 1503 1503 1504 1504
1461 1463 1466 1468 1470 1473 1475 1478 1480 1481 1483 1484 1486 1487 1488 1488 1489 1490 1491 1491 1491 1492 1492 1492 1493 1492 1493 1493 1493 1493 1494 1495 1495 1496 1497 1498 1498 1499 1499 1500 1500 1501 1501
1458 1461 1463 1465 1467 1469 1471 1474 1476 1478 1479 1481 1482 1483 1484 1484 1485 1486 1487 1487 1488 1488 1488 1488 1488 1489 1489 1489 1489 1490 1490 1491 1491 1492 1494 1495 1495 1495 1496 1496 1497 1498 1499
1456 1458 1460 1462 1464 1466 1468 1470 1472 1474 1476 1477 1478 1479 1480 1481 1482 1482 1483 1484 1484 1484 1484 1484 1485 1485 1485 1485 1486 1486 1487 1488 1488 1489 1490 1491 1492 1493 1493 1493 1494 1495 1495